Wetterdaten Frühling 2019

Datum T max T min Regen
01.03.2019 10.2 °C 6.6 °C 14.2 mm
02.03.2019 11 °C 5.6 °C 0 mm
03.03.2019 12.4 °C 7.7 °C 0 mm
04.03.2019 13.2 °C 3.9 °C 5.4 mm
05.03.2019 9.8 °C 3.4 °C 3.6 mm
06.03.2019 15.7 °C 2.3 °C 0 mm
07.03.2019 12.4 °C 7.1 °C 1.4 mm
08.03.2019 10.4 °C 5.4 °C 0.8 mm
09.03.2019 11.2 °C 6.7 °C 0.8 mm
10.03.2019 15.3 °C 6.3 °C 6 mm
11.03.2019 7 °C 0.7 °C 1.6 mm
12.03.2019 10.6 °C 1.3 °C 0 mm
13.03.2019 10 °C 4.4 °C 1.8 mm
14.03.2019 6.8 °C 4.5 °C 7 mm
15.03.2019 11.8 °C 5.6 °C 8.8 mm
16.03.2019 13.8 °C 5.2 °C 0 mm
17.03.2019 16.7 °C 3.7 °C 1 mm
18.03.2019 8.6 °C 1.7 °C 1.4 mm
19.03.2019 9.8 °C 0.5 °C 0 mm
20.03.2019 11.7 °C -2.2 °C 0 mm
21.03.2019 15.8 °C -1.4 °C 0 mm
22.03.2019 18.9 °C 0.2 °C 0 mm
23.03.2019 17.9 °C 1.6 °C 0 mm
24.03.2019 15.1 °C 2.1 °C 0 mm
25.03.2019 9.8 °C 2.4 °C 0.8 mm
26.03.2019 9.3 °C 1.3 °C 0 mm
27.03.2019 11.8 °C 2.9 °C 0 mm
28.03.2019 14.8 °C -0.9 °C 0 mm
29.03.2019 17.2 °C 2.8 °C 0 mm
30.03.2019 19.3 °C 2.7 °C 0 mm
31.03.2019 19.8 °C 2.8 °C 0 mm
01.04.2019 17.6 °C 3.8 °C 0 mm
02.04.2019 21.9 °C 5 °C 0 mm
03.04.2019 13.9 °C 4.2 °C 3.8 mm
04.04.2019 4.9 °C 3 °C 0.2 mm
05.04.2019 8.3 °C 3.7 °C 0 mm
06.04.2019 15.7 °C 1.6 °C 0 mm
07.04.2019 15.9 °C 3.2 °C 0 mm
08.04.2019 14.1 °C 9.1 °C 0 mm
09.04.2019 13.2 °C 8.4 °C 1 mm
10.04.2019 13.2 °C 7.3 °C 2.2 mm
11.04.2019 12 °C 1.8 °C 0 mm
12.04.2019 9.8 °C 0.1 °C 0 mm
13.04.2019 5.6 °C 1.9 °C 0.6 mm
14.04.2019 10.3 °C 1.4 °C 0.2 mm
15.04.2019 16.9 °C 0.2 °C 0 mm
16.04.2019 17.1 °C 2 °C 0 mm
17.04.2019 18.7 °C 9 °C 0.8 mm
18.04.2019 21 °C 4.7 °C 0 mm
19.04.2019 23 °C 6.8 °C 0 mm
20.04.2019 23.3 °C 5.1 °C 0 mm
21.04.2019 23.7 °C 4.6 °C 0 mm
22.04.2019 23.9 °C 5.4 °C 0 mm
23.04.2019 21.4 °C 11 °C 0 mm
24.04.2019 25.2 °C 9.4 °C 1.4 mm
25.04.2019 25.1 °C 6.1 °C 0 mm
26.04.2019 10.8 °C 7.7 °C 5.6 mm
27.04.2019 14 °C 5.1 °C 6.6 mm
28.04.2019 11.5 °C 3.8 °C 0 mm
29.04.2019 12.6 °C 2.4 °C 2.2 mm
30.04.2019 14.4 °C 7.4 °C 0.4 mm
01.05.2019 18.5 °C 3.5 °C 0 mm
02.05.2019 19.3 °C 5.7 °C 1.4 mm
03.05.2019 14.2 °C 8.1 °C 0.8 mm
04.05.2019 9.5 °C 2.9 °C 7 mm
05.05.2019 10.2 °C 1.9 °C 0.2 mm
06.05.2019 11.7 °C 3.5 °C 0 mm
07.05.2019 14.2 °C 1.7 °C 0 mm
08.05.2019 13.2 °C 6.5 °C 8 mm
09.05.2019 14.1 °C 7.6 °C 2.4 mm
10.05.2019 16.3 °C 8.6 °C 0 mm
11.05.2019 17.8 °C 7.6 °C 14.2 mm
12.05.2019 13.6 °C 6.2 °C 0.4 mm
13.05.2019 15.4 °C 3.2 °C 0 mm
14.05.2019 13.9 °C 2.3 °C 0 mm
15.05.2019 13.7 °C 2.3 °C 0 mm
16.05.2019 15.4 °C 2.9 °C 0 mm
17.05.2019 20.1 °C 5 °C 0 mm
18.05.2019 20.4 °C 11.2 °C 0 mm
19.05.2019 21.8 °C 11.6 °C 0.8 mm
20.05.2019 15.2 °C 11.7 °C 10.6 mm
21.05.2019 12.1 °C 11 °C 30.2 mm
22.05.2019 17 °C 9.3 °C 0 mm
23.05.2019 20.2 °C 6 °C 0 mm
24.05.2019 21.6 °C 7.7 °C 0 mm
25.05.2019 20.4 °C 10.8 °C 1 mm
26.05.2019 21.9 °C 8.8 °C 0 mm
27.05.2019 20.4 °C 9.7 °C 0 mm
28.05.2019 18.3 °C 11.6 °C 4.6 mm
29.05.2019 15.9 °C 9.4 °C 0 mm
30.05.2019 21.3 °C 7.6 °C 0 mm
31.05.2019 24.2 °C 13.4 °C 0 mm
 Hinweis zur Datenqualität
∅ Temperatur

10 °C

Abweichung vom Mittel

-0.1 °C

Niederschlag

161.2 mm

Abweichung vom Mittel

92 %

25.2 °C

Lufttemperatur
24.04.2019

1035 hPa

Luftdruck
20.03.2019

45 km/h

Windböen
10.03.2019

161.2 mm

Niederschlag
 

-2.2 °C

Lufttemperatur
20.03.2019

-2 °C

Bodentemperatur 5cm
20.03.2019

996 hPa

Luftdruck
07.03.2019
 Hinweis zur Datenqualität